[[{"header":{"parameterUnit":"m.s-1","parameterCategory":1,"la1":30.2991,"la2":30.254,"lo1":-89.0895,"lo2":-89.0444,"dy":0.0017,"dx":0.0017,"nx":28,"ny":28,"refTime":"2024-10-17T09:00:00:Z","depth":0,"parameterNumber":2,"parameterNumberName":"U-component_of_WINDS"},"data":[0,0,0,0,0,0,0,0,0,0,0,0,0,0,0,0,0,0,0,0,0,0,0,0,0,0,0,0,0,0,0,0,0,0,0,0,0,0,0,0,0,0,0,0,0,0,0,0,0,0,0,0,0,0,0,0,0,0,-4.1524,-4.1525,0,-4.1597,-4.1598,-4.1598,-4.1435,-4.143,-4.1424,-4.1419,-4.1494,-4.1501,-4.1508,0,0,0,0,0,0,0,0,0,0,0,0,0,-4.1243,-4.1249,-4.1524,-4.1525,-4.1526,-4.1597,-4.1598,-4.1599,-4.1436,-4.1429,-4.1423,-4.1417,-4.1492,-4.15,-4.1508,0,0,0,0,0,0,0,0,0,0,0,0,0,-4.1346,-4.1251,-4.1524,-4.1453,-4.1447,-4.1596,-4.1598,-4.1599,-4.1437,-4.1429,-4.1421,-4.1414,-4.1489,-4.1499,-4.151,-4.1731,0,0,-4.1541,-4.1546,0,0,0,0,0,0,0,0,-4.134,-4.1356,-4.1463,-4.1458,-4.1452,-4.1499,-4.1526,-4.1643,-4.1439,-4.1441,-4.1419,-4.141,-4.1502,-4.1511,-4.1542,-4.1734,-4.1737,-4.1542,-4.1548,-4.1553,-4.1556,0,0,0,0,0,0,0,-4.1333,-4.1352,-4.1553,-4.1464,-4.1458,-4.1417,-4.1423,-4.1547,-4.1515,-4.144,-4.1429,-4.1439,-4.1498,-4.1532,-4.1542,-4.1739,-4.1542,-4.1551,-4.1557,-4.1561,-4.2116,-4.2124,0,0,0,0,0,0,-4.1335,-4.1347,-4.155,-4.1555,-4.1376,-4.1429,-4.1435,-4.1492,-4.1513,-4.1509,-4.1446,-4.1432,-4.1519,-4.1531,-4.1544,-4.1806,-4.1553,-4.1562,-4.1568,-4.2108,-4.2118,-4.2127,0,0,0,0,0,0,-4.133,-4.1355,-4.1547,-4.1448,-4.1469,-4.1442,-4.1507,-4.1497,-4.1532,-4.1517,-4.1511,-4.1488,-4.1513,-4.153,-4.1686,-4.1806,-4.1567,-4.1576,-4.2098,-4.2111,-4.2123,-4.2331,0,0,0,0,0,0,-4.1322,-4.1354,-4.1438,-4.1451,-4.1475,-4.1689,-4.1514,-4.1504,-4.155,-4.1532,-4.1555,-4.1551,-4.1508,-4.1671,-4.1696,-4.1816,-4.1584,-4.2087,-4.2104,-4.2119,-4.2313,-4.2349,-4.238,0,0,0,0,0,-4.1313,-4.1493,-4.1443,-4.1468,-4.158,-4.1696,-4.171,-4.1657,-4.156,-4.1645,-4.1635,-4.155,-4.1788,-4.1689,-4.1715,-4.184,-4.2079,-4.2099,-4.2118,-4.2298,-4.2342,-4.2379,0,0,0,0,0,0,-4.1495,-4.1494,-4.1438,-4.1628,-4.1664,-4.1668,-4.1773,-4.1705,-4.1768,-4.1749,-4.168,-4.1686,-4.1856,-4.1862,-4.1751,-4.2055,-4.1917,-4.1943,-4.2046,-4.2087,-4.212,-4.2116,-4.1593,0,0,0,0,0,-4.1558,-4.1652,-4.1645,-4.1814,-4.1834,-4.1801,-4.1849,-4.1805,-4.1839,-4.1853,-4.1855,-4.1891,-4.1974,-4.203,-4.2105,-4.2312,-4.2315,-4.2411,-4.2444,-4.2472,-4.2496,-4.2606,-4.2649,-4.2191,-4.219,-4.219,0,0,-4.1688,-4.1698,-4.1762,-4.1851,-4.1873,-4.1973,-4.1815,-4.1926,-4.2,-4.187,-4.2018,-4.2021,-4.2056,-4.2239,-4.2319,-4.225,-4.2622,-4.2496,-4.2518,-4.2527,-4.2631,-4.2674,-4.2713,-4.2204,-4.2201,-4.2199,0,0,-4.1976,-4.1993,-4.2136,-4.2161,-4.2196,-4.2173,-4.2207,-4.2222,-4.2219,-4.2366,-4.2271,-4.2357,-4.2501,-4.253,-4.2564,-4.2863,-4.2788,-4.2889,-4.3065,-4.3174,-4.321,-4.3242,-4.335,-4.339,-4.2912,-4.2912,-4.2913,0,-4.2134,-4.228,-4.2218,-4.2337,-4.2379,-4.2265,-4.241,-4.2437,-4.2496,-4.2527,-4.2448,-4.2627,-4.2642,-4.2831,-4.2904,-4.2934,-4.2972,-4.2888,-4.321,-4.3241,-4.327,-4.3373,-4.3413,-4.2925,-4.2923,-4.2922,-4.2921,0,-4.2473,-4.2576,-4.2687,-4.2747,-4.28,-4.2932,-4.2889,-4.2951,-4.2902,-4.2887,-4.3038,-4.3053,-4.313,-4.317,-4.3123,-4.3353,-4.3309,-4.3221,-4.3081,-4.3327,-4.3423,-4.3461,-4.2942,-4.2938,-4.2934,-4.2931,0,0,-4.2882,-4.2904,-4.2946,-4.2972,-4.3002,-4.3081,-4.3206,-4.3281,-4.3336,-4.3379,-4.3484,-4.3608,-4.3527,-4.3565,-4.352,-4.3615,-4.3853,-4.3515,-4.3515,-4.358,-4.4109,-4.4178,-4.4224,-4.3802,-4.3809,-4.3815,-4.4107,0,-4.3169,-4.3386,-4.3333,-4.3548,-4.3643,-4.3535,-4.3644,-4.3674,-4.3663,-4.3742,-4.3728,-4.3818,-4.3703,-4.3726,-4.3815,-4.3806,-4.3959,-4.3783,-4.39,-4.3905,-4.3898,-4.4274,-4.4346,-4.4622,-4.4144,-4.415,-4.4154,0,-4.3534,-4.3592,-4.3817,-4.3831,-4.3869,-4.3969,-4.4033,-4.4109,-4.4141,-4.4126,-4.4169,-4.4105,-4.4229,-4.4086,-4.4256,-4.4138,-4.4182,-4.4184,-4.4194,-4.4205,-4.4047,-4.4298,-4.4708,-4.4751,-4.4212,-4.4207,-4.4203,0,-4.3813,-4.3946,-4.4098,-4.4123,-4.4144,-4.4216,-4.4228,-4.4252,-4.43,-4.4356,-4.4387,-4.4457,-4.4496,-4.4551,-4.4508,-4.4407,-4.4686,-4.4539,-4.4678,-4.468,-4.4745,-4.4742,-4.5171,-4.4769,-4.4768,-4.4767,-4.4766,0,-4.4142,-4.4284,-4.4224,-4.4318,-4.4474,-4.4411,-4.4567,-4.4566,-4.4588,-4.468,-4.459,-4.4678,-4.4613,-4.4696,-4.4662,-4.481,-4.4827,-4.4819,-4.4809,-4.483,-4.4831,-4.486,-4.4841,-4.4778,-4.4776,-4.4774,-4.4772,0,-4.4481,-4.4447,-4.4606,-4.4611,-4.4616,-4.4731,-4.4736,-4.4823,-4.4803,-4.4921,-4.4945,-4.4916,-4.5008,-4.4969,-4.5066,-4.5043,-4.5234,-4.5196,-4.5224,-4.5216,-4.5358,-4.5347,-4.5823,-4.5884,-4.544,-4.5444,-4.5448,0,-4.4695,-4.4802,-4.4819,-4.4874,-4.4893,-4.4982,-4.5031,-4.4972,-4.5027,-4.5071,-4.5153,-4.5237,-4.5302,-4.5455,-4.5443,-4.5517,-4.5483,-4.5644,-4.5493,-4.5511,-4.5489,-4.5484,-4.5495,-4.5676,-4.5681,-4.5685,-4.5689,0,-4.5079,-4.5056,-4.5131,-4.52,-4.5261,-4.5312,-4.5355,-4.5405,-4.5348,-4.5414,-4.5508,-4.5558,-4.5657,-4.5743,-4.5808,-4.5819,-4.5747,-4.5736,-4.5772,-4.5796,-4.5809,-4.5807,-4.531,-4.5726,-4.5722,-4.572,-4.5717,-4.5716,-4.5364,-4.5455,-4.5481,-4.5567,-4.5593,-4.5636,-4.5718,-4.5709,-4.5786,-4.5863,-4.5822,-4.5932,-4.596,-4.604,-4.6061,-4.6146,-4.6083,-4.6135,-4.6149,-4.6164,-4.6184,-4.5792,-4.6157,-4.6156,-4.6155,-4.6154,-4.6153,0,-4.5746,-4.5757,-4.5836,-4.59,-4.5968,-4.5891,-4.5934,-4.5996,-4.6094,-4.6126,-4.6192,-4.6299,-4.6382,-4.6375,-4.6451,-4.652,-4.6488,-4.6542,-4.6538,-4.6542,-4.6235,-4.6197,-4.6566,-4.6566,-4.6566,-4.6566,-4.6566,-4.6566,-4.5953,-4.6103,-4.6083,-4.6245,-4.6254,-4.6361,-4.6393,-4.6432,-4.6457,-4.6582,-4.665,-4.6644,-4.6662,-4.6737,-4.681,-4.6805,-4.6839,-4.6906,-4.689,-4.6604,-4.6564,-4.6525,-4.6489,-4.6913,-4.6914,-4.719,-4.7193,-4.7195]},{"header":{"parameterUnit":"m.s-1","parameterCategory":1,"la1":30.2991,"la2":30.254,"lo1":-89.0895,"lo2":-89.0444,"dy":0.0017,"dx":0.0017,"nx":28,"ny":28,"refTime":"2024-10-17T09:00:00:Z","depth":0,"parameterNumber":3,"parameterNumberName":"V-component_of_WINDS"},"data":[0,0,0,0,0,0,0,0,0,0,0,0,0,0,0,0,0,0,0,0,0,0,0,0,0,0,0,0,0,0,0,0,0,0,0,0,0,0,0,0,0,0,0,0,0,0,0,0,0,0,0,0,0,0,0,0,0,0,-4.8471,-4.8472,0,-4.8509,-4.8509,-4.8509,-4.8447,-4.8444,-4.8442,-4.844,-4.8476,-4.8478,-4.8481,0,0,0,0,0,0,0,0,0,0,0,0,0,-4.8341,-4.8344,-4.8471,-4.8472,-4.8472,-4.8509,-4.8509,-4.851,-4.8447,-4.8444,-4.8442,-4.8439,-4.8475,-4.8478,-4.8482,0,0,0,0,0,0,0,0,0,0,0,0,0,-4.839,-4.8345,-4.8471,-4.8446,-4.8444,-4.8508,-4.8509,-4.851,-4.8447,-4.8444,-4.8441,-4.8438,-4.8473,-4.8478,-4.8482,-4.8573,0,0,-4.8495,-4.8497,0,0,0,0,0,0,0,0,-4.8387,-4.8395,-4.8449,-4.8447,-4.8445,-4.847,-4.8476,-4.8531,-4.8448,-4.8446,-4.844,-4.8437,-4.8476,-4.848,-4.8494,-4.8575,-4.8576,-4.8496,-4.8498,-4.85,-4.8502,0,0,0,0,0,0,0,-4.8384,-4.8393,-4.8486,-4.845,-4.8448,-4.843,-4.8434,-4.8486,-4.8478,-4.8446,-4.8441,-4.8447,-4.8474,-4.849,-4.8494,-4.8577,-4.8496,-4.85,-4.8502,-4.8504,-4.873,-4.8733,0,0,0,0,0,0,-4.8384,-4.8391,-4.8485,-4.8487,-4.8408,-4.8435,-4.8439,-4.8465,-4.8478,-4.8476,-4.845,-4.8444,-4.8484,-4.8489,-4.8495,-4.86,-4.85,-4.8504,-4.8507,-4.8727,-4.8731,-4.8735,0,0,0,0,0,0,-4.8382,-4.8394,-4.8483,-4.8438,-4.8448,-4.8441,-4.8471,-4.8468,-4.8483,-4.848,-4.8478,-4.8467,-4.8482,-4.8489,-4.8553,-4.86,-4.8506,-4.851,-4.8723,-4.8728,-4.8733,-4.8812,0,0,0,0,0,0,-4.8379,-4.8393,-4.8429,-4.8439,-4.8451,-4.8543,-4.8474,-4.8471,-4.8491,-4.8484,-4.8496,-4.8495,-4.848,-4.8547,-4.8558,-4.8605,-4.8514,-4.8719,-4.8725,-4.8731,-4.8805,-4.8819,-4.8831,0,0,0,0,0,-4.8374,-4.845,-4.8431,-4.8443,-4.8495,-4.8545,-4.8552,-4.8533,-4.8495,-4.853,-4.8528,-4.8495,-4.8594,-4.8554,-4.8566,-4.8615,-4.8716,-4.8723,-4.8731,-4.8799,-4.8816,-4.8831,0,0,0,0,0,0,-4.8444,-4.845,-4.843,-4.8511,-4.8528,-4.8535,-4.8578,-4.8552,-4.858,-4.8572,-4.8547,-4.855,-4.8619,-4.8624,-4.8579,-4.8702,-4.8648,-4.8658,-4.8696,-4.8712,-4.8725,-4.8721,-4.8517,0,0,0,0,0,-4.847,-4.8511,-4.8514,-4.8585,-4.8595,-4.8585,-4.8606,-4.8591,-4.8607,-4.8614,-4.8616,-4.8633,-4.8667,-4.869,-4.8722,-4.8806,-4.8806,-4.8845,-4.8858,-4.8868,-4.8877,-4.8918,-4.8935,-4.876,-4.876,-4.8759,0,0,-4.8522,-4.853,-4.8558,-4.8599,-4.8611,-4.8652,-4.8592,-4.8639,-4.8669,-4.862,-4.8681,-4.8684,-4.87,-4.8774,-4.8806,-4.8779,-4.8925,-4.8878,-4.8887,-4.8889,-4.8928,-4.8944,-4.8959,-4.8765,-4.8764,-4.8763,0,0,-4.8637,-4.8649,-4.8708,-4.8721,-4.8739,-4.8731,-4.8746,-4.8756,-4.8756,-4.8817,-4.878,-4.8815,-4.8876,-4.8888,-4.8902,-4.902,-4.899,-4.9031,-4.9098,-4.9139,-4.9153,-4.9165,-4.9204,-4.9219,-4.904,-4.9041,-4.9041,0,-4.8699,-4.8761,-4.8742,-4.8791,-4.8809,-4.8768,-4.8826,-4.8839,-4.8866,-4.8879,-4.8849,-4.8922,-4.8931,-4.9005,-4.9034,-4.9048,-4.9061,-4.9029,-4.9153,-4.9165,-4.9176,-4.9213,-4.9228,-4.9045,-4.9045,-4.9044,-4.9044,0,-4.8835,-4.8879,-4.8924,-4.8952,-4.8975,-4.9029,-4.9015,-4.9041,-4.9023,-4.9019,-4.9079,-4.9088,-4.9119,-4.9136,-4.9119,-4.9208,-4.919,-4.9157,-4.9102,-4.9197,-4.9232,-4.9246,-4.9052,-4.905,-4.9049,-4.9048,0,0,-4.8996,-4.901,-4.9027,-4.9038,-4.9054,-4.9087,-4.9137,-4.9169,-4.919,-4.921,-4.925,-4.9302,-4.9271,-4.9287,-4.9271,-4.9307,-4.9397,-4.9269,-4.9269,-4.929,-4.9491,-4.9514,-4.9531,-4.9377,-4.938,-4.9382,-4.9489,0,-4.9108,-4.9196,-4.9179,-4.9264,-4.9303,-4.9263,-4.9307,-4.9321,-4.9318,-4.9349,-4.9345,-4.9381,-4.9339,-4.9347,-4.9382,-4.9379,-4.9436,-4.9371,-4.9412,-4.9414,-4.9407,-4.955,-4.9575,-4.9675,-4.9503,-4.9505,-4.9507,0,-4.9251,-4.9276,-4.9365,-4.9373,-4.9388,-4.9428,-4.9454,-4.9485,-4.9499,-4.9494,-4.9511,-4.9488,-4.9536,-4.9483,-4.9547,-4.9503,-4.9519,-4.952,-4.9523,-4.9524,-4.9464,-4.9552,-4.9707,-4.9721,-4.9528,-4.9526,-4.9525,0,-4.9356,-4.9412,-4.9471,-4.9482,-4.9494,-4.9522,-4.9528,-4.9539,-4.9558,-4.958,-4.9591,-4.962,-4.9634,-4.9656,-4.9639,-4.9603,-4.9706,-4.9652,-4.9701,-4.9701,-4.9723,-4.9721,-4.9879,-4.9738,-4.9738,-4.9737,-4.9737,0,-4.9482,-4.9537,-4.9518,-4.9555,-4.9615,-4.9594,-4.9653,-4.9654,-4.9664,-4.9699,-4.9667,-4.97,-4.9678,-4.9709,-4.9696,-4.975,-4.9758,-4.9753,-4.9749,-4.9755,-4.9755,-4.9763,-4.9755,-4.9741,-4.974,-4.974,-4.9739,0,-4.9608,-4.9598,-4.966,-4.9665,-4.9667,-4.9711,-4.9715,-4.9748,-4.9742,-4.9786,-4.9795,-4.9786,-4.982,-4.9807,-4.9844,-4.9835,-4.9903,-4.9891,-4.9899,-4.9894,-4.9944,-4.9938,-5.011,-5.0131,-4.9979,-4.998,-4.9981,0,-4.9688,-4.9729,-4.9738,-4.9759,-4.9767,-4.9802,-4.9821,-4.9802,-4.9822,-4.984,-4.9871,-4.9902,-4.9926,-4.9983,-4.9978,-5.0006,-4.9992,-5.0051,-4.9996,-4.9999,-4.9989,-4.9986,-4.9989,-5.0061,-5.0062,-5.0064,-5.0065,0,-4.9829,-4.9822,-4.9851,-4.9878,-4.9901,-4.9921,-4.9939,-4.9957,-4.9938,-4.9963,-4.9998,-5.0017,-5.0053,-5.0084,-5.0108,-5.0112,-5.0085,-5.0083,-5.0095,-5.01,-5.0101,-5.0098,-4.9926,-5.0078,-5.0077,-5.0076,-5.0075,-5.0075,-4.9933,-4.9966,-4.9978,-5.001,-5.0021,-5.0037,-5.0068,-5.0066,-5.0094,-5.0123,-5.011,-5.0149,-5.016,-5.0189,-5.0197,-5.0226,-5.0203,-5.0222,-5.0226,-5.023,-5.0235,-5.0099,-5.0231,-5.0231,-5.023,-5.023,-5.023,0,-5.007,-5.0075,-5.0105,-5.013,-5.0155,-5.0128,-5.0145,-5.0167,-5.0203,-5.0215,-5.0239,-5.0278,-5.0307,-5.0305,-5.0332,-5.0356,-5.0344,-5.0363,-5.036,-5.0361,-5.0256,-5.0241,-5.0372,-5.0372,-5.0372,-5.0372,-5.0372,-5.0372,-5.0144,-5.0199,-5.0193,-5.0252,-5.0256,-5.0294,-5.0306,-5.032,-5.033,-5.0374,-5.0399,-5.0397,-5.0403,-5.043,-5.0455,-5.0453,-5.0463,-5.0487,-5.0481,-5.0383,-5.0368,-5.0355,-5.0341,-5.049,-5.049,-5.0582,-5.0583,-5.0584]}]]